Regional Weather Roundup
Issued by NWS Wakefield, VA

Home | Current Version | Previous Version | Text Only | Print | Product List | Glossary Off
Versions: 1 2 3 4 5 6 7 8 9 10 11 12 13 14 15 16 17 18 19 20 21 22 23 24 25 26 27 28 29 30 31 32 33 34 35 36 37 38 39 40 41 42 43 44 45 46 47 48 49 50

000
ASUS41 KAKQ 252310
RWRAKQ

REGIONAL WEATHER ROUNDUP
NATIONAL WEATHER SERVICE WAKEFIELD VA
600 PM EST SUN JAN 25 2015

Note: "fair" indicates few or no clouds below 12,000 feet with no
significant weather and/or obstructions to visibility. * = Denotes
station may not report precipitation (e.g., rain,snow,etc.),
thunder or fog.

VAZ042-051-052>054-056-260000-
NORTHERN VIRGINIA

CITY           SKY/WX    TMP DP  RH WIND       PRES   REMARKS
WASH NATIONAL  CLOUDY    47  31  53 S5        29.85R
DULLES         CLOUDY    45  31  58 CALM      29.83R
FORT BELVOIR   CLOUDY    46  33  61 CALM      29.84R
QUANTICO       CLOUDY    44  32  62 CALM      29.85R
FREDERICKSBRG* FAIR      44  34  69 CALM      29.83R
STAFFORD*      PTCLDY    43  31  63 CALM      29.87R
WARRENTON      MOCLDY    40  36  86 CALM      29.82R
CULPEPER*      MOCLDY    39  34  81 CALM      29.83R
MANASSAS*      CLOUDY    45  36  70 CALM      29.83R
LEESBURG*      CLOUDY    45  34  65 CALM      29.84S
WINCHESTER     CLOUDY    41  32  70 CALM      29.80S
FRONT ROYAL*   CLOUDY    41  32  70 CALM      29.80R
LURAY*         FAIR      39  34  81 CALM      29.79S
$$

VAZ048-049-060>072-079>083-260000-
CENTRAL AND SOUTH CENTRAL VIRGINIA

CITY           SKY/WX    TMP DP  RH WIND       PRES   REMARKS
RICHMOND       MOCLDY    49  34  56 S6        29.83R
CHESTERFIELD*  FAIR      45  27  49 CALM      29.84R
PETERSBURG*    CLEAR     47  35  60 SE3       29.84R
HANOVER        CLEAR     44  34  67 CALM      29.84R
TAPPAHANNOCK*  CLEAR     46  29  53 CALM      29.85R
QUINTON*       FAIR      44  33  65 S6        29.84R
CHARLOTTSVILLE PTCLDY    47  32  56 CALM      29.80R
GORDONSVILLE*  FAIR      39  33  77 CALM      29.81R
ORANGE*        MOCLDY    41  34  75 CALM      29.83R
LOUISA*        PTCLDY    39  36  87 CALM      29.80R
BUMPASS*       FAIR      42  33  71 CALM      29.82R
FARMVILLE*     CLEAR     47  33  58 S3        29.80R
CREWE*         FAIR      47  32  57 S3        29.81R
FORT PICKETT*  FAIR      45  34  63 SE6       29.82R
CHASE CITY*    FAIR      47  36  65 SE3       29.81S
CLARKSVILLE*   FAIR      45  34  65 CALM      29.81S
SOUTH HILL*    CLEAR     45  35  67 SE3       29.89R
LAWRENCEVILLE* FAIR      44  36  72 CALM      29.83R
EMPORIA*       CLEAR     43  34  70 CALM      29.87R
$$

VAZ088>098-260000-
SOUTHEAST VIRGINIA

CITY           SKY/WX    TMP DP  RH WIND       PRES   REMARKS
NORFOLK        CLEAR     47  31  53 S7        29.86R
VIRGINIA BEACH PTCLDY    46  32  58 S6        29.87R
NORFOLK NAVAL  PTCLDY    47  31  53 CALM      29.88R
WEST POINT*    CLEAR     44  32  62 E5        29.87R
SALUDA*        FAIR      41  32  70 CALM      29.86S
NEWPORT NEWS   CLEAR     45  33  63 CALM      29.87R
LANGLEY AFB    CLEAR     44  33  64 SE2       29.87R
FORT EUSTIS    CLEAR     44  36  73 S3        29.84S
WILLIAMSBURG*    N/A     45  37  76 SE5       29.87R
HR EXEC AP*    FAIR      43  28  56 S3        29.89R
FRANKLIN*      CLEAR     42  34  73 CALM      29.86S
WAKEFIELD      CLEAR     42  35  76 CALM      29.85S
$$

VAZ020-022-025-037-045-260000-
WEST CENTRAL AND SOUTHWEST VIRGINIA

CITY           SKY/WX    TMP DP  RH WIND       PRES   REMARKS
STAUNTON*      MOCLDY    43  32  64 S3        29.80R
WAYNESBORO*    FAIR      40  32  71 CALM      29.77S
HOT SPRINGS VA MOCLDY    34  33  99 CALM      29.71R
LYNCHBURG      MOCLDY    46  30  53 SE5       29.79R
DANVILLE       PTCLDY    51  31  46 S3        29.79S
SOUTH BOSTON*  FAIR      49  31  50 SE3       29.81R
MARTINSVILLE   PTCLDY    48  31  51 CALM      29.80R
ROANOKE        CLOUDY    48  30  49 E8        29.78R
BLACKSBURG     CLOUDY    44  28  52 S5        29.77S
DUBLIN*        CLOUDY    46  32  58 SE6       29.75S
MARION*        MOCLDY    47  28  46 S3        29.74R
HILLSVILLE*    PTCLDY    42  30  61 S5        29.74R
RICHLANDS*     CLOUDY    44  26  50 SW3       29.70S
WISE*          CLOUDY    43  30  61 SW3       29.71R
ABINGDON*      CLOUDY    48  31  50 CALM      29.71R
$$

MDZ021>025-VAZ099-100-260000-
SOUTHERN MARYLAND AND THE DELMARVA PENINSULA

CITY           SKY/WX    TMP DP  RH WIND       PRES   REMARKS
PATUXENT RIVER MOCLDY    41  32  70 SE6       29.85S
BAY BRIDGE APT   N/A     45  32  61 S6        29.86R
LEONARDTOWN    PTCLDY    43  32  65 SE5       29.87R
DOVER          CLOUDY    44  34  67 S6        29.86R
GEORGETOWN     CLOUDY    44  32  62 SW6       29.87R
EASTON         CLOUDY    46  34  61 S6        29.89R
CAMBRIDGE      CLOUDY    45  32  61 S3        29.86S
SALISBURY      MOCLDY    43  31  62 S6        29.87R
OCEAN CITY     CLOUDY    43  32  65 SW6       29.89R
WALLOPS ISLAND PTCLDY    40  34  79 SW9       29.89R
ACCOMACK*      CLEAR     41  30  65 S5        29.89R
$$

NCZ012>017-030>032-260000-
NORTH CENTRAL AND EASTERN NORTH CAROLINA

CITY           SKY/WX    TMP DP  RH WIND       PRES   REMARKS
ROANOKE RAPIDS FAIR      46  34  61 S3        29.85R
RALEIGH        PTCLDY    49  32  52 SE5       29.82S
ELIZABETH CITY CLEAR     43  37  79 SE7       29.89R
AHOSKIE*       CLEAR     43  34  69 CALM      29.87S
EDENTON*       CLEAR     46  36  66 S6        29.88R
CURRITUCK*     CLEAR     44  31  60 CALM      29.90R
KILL DEVIL HLS CLEAR     43  31  63 S3        29.89S
MANTEO         CLEAR     43  32  65 S8        29.91R
CAPE HATTERAS  CLEAR     44  36  73 S5        29.92R
TARBORO*       FAIR      49  35  57 SE3       29.86S
GOLDSBORO      CLEAR     50  40  69 SE5       29.83F
WASHINGTON     CLEAR     46  34  62 SE6       29.88F
GREENVILLE     CLEAR     50  32  50 SE3       29.88F
NEW BERN       CLEAR     49  35  58 S8        29.90S
WILMINGTON     CLEAR     47  33  58 SE5       29.89F
$$

VAZ048-260000-
ELSEWHERE

CITY           SKY/WX    TMP DP  RH WIND       PRES   REMARKS
HARRISBURG PA  LGT RAIN  35  32  88 CALM      29.84R
BALTIMORE      CLOUDY    46  30  53 CALM      29.84R
ANNAPOLIS      CLOUDY    44  31  60 S7        29.85R
ANDREWS AFB    CLOUDY    45  32  59 SE3       29.83R
PHILADELPHIA   MOCLDY    42  32  67 N6        29.87R
HENDERSON NC   CLEAR     48  30  49 SE3       29.82S
GREENSBORO     PTCLDY    48  32  53 S8        29.77R
ROCKY MOUNT    CLEAR     45  35  68 CALM      29.85S
$$

VAZ100-260000-
MARINE

STATION/POSITION TIME  TEMP    WIND        PRES    WAVE   SWELL
                       AIR SEA DIR/SP/G            HT/PER HT/PER
                 (UTC) (F)     (DEG/KT/KT) (MB)    (FT/S) (FT/S)
BRANDYWINE LGT   2300   46 37  240/ 12/ 12 1011.0R
CAPE MAY NJ      2300   42 38  260/  2/  3 1010.7R
LEWES DE         2300   45 38  230/  3/  4 1011.2R
15NM E FENWICK I 2300   43 42              1011.3R   3/11
OCEAN-CITY-INLET 2300   44 40  250/  5/  6 1011.5R
WACHAPREAGUE VA  2300   42 43  220/  3/  4 1011.9S
THOMAS POINT MD  2300   41 37  170/ 12/ 13 1012.1R
GOOSES REEF MD   2300   40     VRB 12/ 14  1009.7S
COVE POINT MD    2300   40     190/ 12/ 13 1010.7R
SOLOMONS ISLAND  2300      39                N/A
BISHOPS HEAD MD  2300   41 39  170/  8/  9 1010.8R
PINEY POINT MD   2300          150/ 11/ 11   N/A
POTOMAC MD       2300   42     170/ 10/ 10 1010.0S
CAMBRIDGE MD     2300   45 37  190/  3/  7 1010.9R
LEWISETTA VA     2300   45 39  160/  8/  9 1010.5R
RAPPAHANNOCK LGT 2300          140/ 11/ 11 1012.0R
STINGRAY PT      2300   41     180/ 10/ 10 1011.9S
YORK RVR RNG VA  2300   42     130/ 13/ 13 1010.3F
YORKTOWN VA      2300   45 41  110/  7/  8 1010.8R
JAMESTOWN VA     2300   46     170/  4/  6   N/A
DOMINION TERM VA 2300   45      10/  2/  3 1011.2R
KIPTOPEKE VA     2300      46  160/ 11/ 13   N/A
CHES BAY BRIDGE  2300   46 42  150/  8/ 10 1010.9R
CAPE HENRY VA    2300   43     140/  7/  8 1010.2S
CHESAPEAKE LGHT  2200   45     170/ 17/ 18 1012.0F
WILLOUBY STN VA  2300   44     100/  5/  5 1011.6S
S CRANEY ISL VA  2300          200/  5/  6 1011.1R
CAPE HENRY BUOY  2300      45                N/A     2/11   2/11
1ST LANDING BUOY 2300   44     140/  8/ 10 1011.1S
CAPE CHARLES BUO 2300      43                N/A     3/10   2/10
OFFSHORE WE BUOY 2300      47                N/A     3/11   3/11
64NM E OF VA BCH 2300   47 52  180/  8/ 10 1012.3F   4/10   3/10
DUCK PIER NC     2300   45 44  150/ 14/ 15 1011.2R
44100 DUCK FRF   2300      45                N/A     3/11   2/11
44056 DUCK FRF   2300      44                N/A     3/10   2/11
OREGON INLET NC  2300   43 46  140/  6/  8 1012.4F
HATTERAS NC      2300   48 53  190/  3/  6 1013.2F



USA.gov is the U.S. government's official web portal to all federal, state and local government web resources and services.